Location: Clairmont
(55.2667°N, 118.8000°W)
Time: 08:34:37
(UTC+00:00)

N. Korean satellite - Pass Details

Date: 04 November 2020
Orbit: 453 x 503 km, 97.2° (Epoch: 03 December)

Event Time Altitude Azimuth Distance (km) Brightness Sun altitude
Rises 01:32:27 0° 206° (SSW) 2,511 10.7 -11.8°
Reaches altitude 10° 01:35:04 10° 228° (SW) 1,629 10.2 -12.1°
Maximum altitude 01:37:24 17° 270° (W) 1,267 9.9 -12.5°
Drops below altitude 10° 01:39:43 10° 312° (NW) 1,623 9.8 -12.8°
Sets 01:42:20 0° 334° (NNW) 2,496 10.4 -13.2°
